Weather History for LTCJ - August, 2014

Change the Weather History Date:

Saturday, August 30, 2014

  Actual Average (LTCC) Record (LTCC)
Temperature  
Mean Temperature 85 °F -  
Max Temperature 105 °F 95 °F 104 °F (2008)
Min Temperature 65 °F 66 °F 60 °F (2002)
Cooling Degree Days 20    
Growing Degree Days 35 (Base 50)    
Moisture  
Dew Point 37 °F    
Average Humidity 21    
Maximum Humidity 52    
Minimum Humidity 4    
Precipitation  
Precipitation 0.00 in - - ()
Sea Level Pressure  
Sea Level Pressure 29.70 in    
Wind  
Wind Speed 4 mph ()    
Max Wind Speed 8 mph    
Max Gust Speed -    
Visibility 12.0 miles    
Events      
Averages and records for this station are not official NWS values.
T = Trace of Precipitation, MM = Missing Value Source: Averaged Metar Reports

Daily Weather History Graph

Daily Weather History Graph

Search for Another Location

Airport or City:

Trip Planner

Search our weather history database for the weather conditions in past years. The results will help you decide how hot, cold, wet, or windy it might be!

Date:

Astronomy

Aug. 30, 2014 Rise Set
Actual Time 5:43 AM EEST 6:48 PM EEST
Civil Twilight 5:16 AM EEST 7:15 PM EEST
Nautical Twilight 4:44 AM EEST 7:47 PM EEST
Astronomical Twilight 4:10 AM EEST 8:20 PM EEST
Moon 10:04 AM EEST (8/30) 9:14 PM EEST (8/30)
Length of Visible Light 13h 59m
Length of Day
13h 04m
Waxing Crescent, 20% of the Moon is Illuminated
Aug 30
Waxing Crescent
Sep 2
First Quarter
Sep 9
Full
Sep 16
Last Quarter
Sep 24
New

Hourly Weather History & Observations

Time (EEST) Temp. Dew Point Humidity Pressure Visibility Wind Dir Wind Speed Gust Speed Precip Events Conditions
12:20 AM 73.4 °F 42.8 °F 33% 29.74 in - Variable 1.2 mph - N/A   Clear
12:50 AM 73.4 °F 46.4 °F 38% 29.74 in - NW 2.3 mph - N/A   Clear
1:20 AM 73.4 °F 46.4 °F 38% 29.74 in - Calm Calm - N/A   Clear
1:50 AM 73.4 °F 42.8 °F 33% 29.74 in - Variable 1.2 mph - N/A   Clear
2:20 AM 68.0 °F 46.4 °F 46% 29.74 in - NE 5.8 mph - N/A   Clear
2:50 AM 68.0 °F 46.4 °F 46% 29.74 in - North 4.6 mph - N/A   Clear
3:20 AM 66.2 °F 46.4 °F 49% 29.74 in - NNE 6.9 mph - N/A   Clear
3:50 AM 66.2 °F 48.2 °F 52% 29.74 in - NNE 6.9 mph - N/A   Clear
4:20 AM 66.2 °F 46.4 °F 49% 29.74 in - NE 6.9 mph - N/A   Clear
4:50 AM 66.2 °F 42.8 °F 43% 29.74 in - NE 6.9 mph - N/A   Clear
5:20 AM 66.2 °F 41.0 °F 40% 29.74 in - NE 5.8 mph - N/A   Clear
5:50 AM 64.4 °F 42.8 °F 45% 29.74 in - NNE 5.8 mph - N/A   Clear
6:20 AM 64.4 °F 44.6 °F 49% 29.74 in - NNE 6.9 mph - N/A   Clear
6:50 AM 69.8 °F 44.6 °F 40% 29.77 in - NE 4.6 mph - N/A   Clear
7:20 AM 71.6 °F 46.4 °F 41% 29.77 in - Variable 1.2 mph - N/A   Clear
7:50 AM 73.4 °F 46.4 °F 38% 29.77 in - West 3.5 mph - N/A   Clear
8:20 AM 77.0 °F 42.8 °F 29% 29.77 in - SW 4.6 mph - N/A   Clear
8:50 AM 80.6 °F 42.8 °F 26% 29.77 in - SW 4.6 mph - N/A   Clear
9:00 AM 84 °F 42 °F 14% 29.65 in 12 mi NW 3.5 mph - -  
9:20 AM 84.2 °F 41.0 °F 22% 29.77 in - WSW 6.9 mph - N/A   Clear
9:50 AM 87.8 °F 41.0 °F 19% 29.77 in - SSW 6.9 mph - N/A   Clear
10:00 AM 89 °F 41 °F 11% 29.65 in 12 mi West 4.6 mph - -  
10:20 AM 89.6 °F 41.0 °F 18% 29.77 in - WSW 6.9 mph - N/A   Clear
10:50 AM 93.2 °F 39.2 °F 15% 29.77 in - WSW 5.8 mph - N/A   Clear
11:00 AM 94 °F 36 °F 7% 29.62 in 12 mi WNW 3.5 mph - -  
11:20 AM 95.0 °F 35.6 °F 12% 29.77 in - West 4.6 mph - N/A   Clear
11:50 AM 98.6 °F 37.4 °F 12% 29.74 in - SW 4.6 mph - N/A   Clear
12:00 PM 96 °F 37 °F 6% 29.62 in 12 mi WSW 4.6 mph - -  
12:20 PM 100.4 °F 37.4 °F 11% 29.74 in - Variable 4.6 mph - N/A   Clear
12:50 PM 102.2 °F 35.6 °F 10% 29.74 in - West 4.6 mph - N/A   Clear
1:00 PM 100 °F 34 °F 5% 29.60 in 12 mi North 2.3 mph - -  
1:20 PM 102.2 °F 33.8 °F 9% 29.71 in - Variable 3.5 mph - N/A   Clear
1:50 PM 102.2 °F 32.0 °F 9% 29.71 in - SW 4.6 mph - N/A   Clear
2:00 PM 103 °F 31 °F 4% 29.57 in 12 mi West 4.6 mph - -  
2:20 PM 104.0 °F 32.0 °F 8% 29.71 in - Variable 4.6 mph - N/A   Clear
2:50 PM 104.0 °F 30.2 °F 8% 29.71 in - Variable 4.6 mph - N/A   Clear
3:00 PM 104 °F 28 °F 4% 29.56 in 12 mi NW 3.5 mph - -  
3:20 PM 104.0 °F 28.4 °F 7% 29.68 in - WNW 6.9 mph - N/A   Clear
3:50 PM 105.8 °F 30.2 °F 7% 29.68 in - WSW 5.8 mph - N/A   Clear
4:00 PM 105 °F 28 °F 4% 29.55 in 12 mi West 4.6 mph - -  
4:20 PM 104.0 °F 28.4 °F 7% 29.68 in - WNW 4.6 mph - N/A   Clear
4:50 PM 104.0 °F 28.4 °F 7% 29.68 in - Variable 5.8 mph - N/A   Clear
5:00 PM 103 °F 27 °F 4% 29.55 in 12 mi NW 4.6 mph - -  
5:20 PM 104.0 °F 28.4 °F 7% 29.68 in - North 4.6 mph - N/A   Clear
5:50 PM 104.0 °F 28.4 °F 7% 29.68 in - Variable 1.2 mph - N/A   Clear
6:00 PM 101 °F 29 °F 4% 29.56 in 12 mi West 4.6 mph - -  
6:20 PM 98.6 °F 33.8 °F 10% 29.68 in - WSW 4.6 mph - N/A   Clear
6:50 PM 95.0 °F 35.6 °F 12% 29.68 in - WSW 2.3 mph - N/A   Clear
7:00 PM 97 °F 31 °F 4% 29.57 in 12 mi WNW 3.5 mph - -  
7:20 PM 87.8 °F 33.8 °F 15% 29.68 in - Calm Calm - N/A   Clear
7:50 PM 87.8 °F 33.8 °F 15% 29.71 in - Variable 2.3 mph - N/A   Clear
8:00 PM 89 °F 26 °F 4% 29.58 in 12 mi Calm Calm - -  
8:20 PM 82.4 °F 35.6 °F 19% 29.71 in - NE 1.2 mph - N/A   Clear
8:50 PM 78.8 °F 37.4 °F 23% 29.71 in - NNE 3.5 mph - N/A   Clear
9:00 PM 85 °F 27 °F 6% 29.59 in 12 mi ESE 5.8 mph - -  
9:20 PM 77.0 °F 35.6 °F 22% 29.71 in - NNE 8.1 mph - N/A   Clear
9:50 PM 77.0 °F 37.4 °F 24% 29.74 in - Variable 2.3 mph - N/A   Clear
10:20 PM 73.4 °F 41.0 °F 31% 29.74 in - Variable 2.3 mph - N/A   Clear
10:50 PM 71.6 °F 41.0 °F 33% 29.74 in - NE 6.9 mph - N/A   Clear
11:20 PM 71.6 °F 39.2 °F 31% 29.74 in - Variable 2.3 mph - N/A   Clear
11:50 PM 71.6 °F 35.6 °F 27% 29.74 in - NE 6.9 mph - N/A   Clear